{"data":{"norad_id":64893,"epoch":"2026-09-19T22:10:17.953824Z","epoch_age_seconds":64071,"freshness":"FRESH","line1":"1 64893U 25155T   26262.92381891  .00015027  00000+0  39814-3 0  9999","line2":"2 64893  97.4645 234.1741 0005303 176.0463 184.0825 15.38433097 95406","mean_motion":15.38433097,"eccentricity":0.0005303,"inclination_deg":97.4645,"raan_deg":234.1741,"arg_perigee_deg":176.0463,"mean_anomaly_deg":184.0825,"bstar":0.00039814,"rev_number":9540,"period_min":93.60173041051,"perigee_km":447.12086665303,"apogee_km":454.36357595514,"semimajor_km":6828.8792213041,"source":"CELESTRAK","updated_at":"2026-09-20T09:00:45.267431Z"}}